Location: Carrer del Canonge
(41.4901°N, 2.2931°E)
Time: 14:42:02
(UTC+00:00)

In-Cosmos 22 - Pass Details

Date: 18 September 2020
Orbit: 785 x 876 km, 81.2° (Epoch: 29 October)

Event Time Altitude Azimuth Distance (km) Brightness Sun altitude
Rises 19:10:02 0° 354° (N) 3,286 7.6 -14.8°
Reaches altitude 10° 19:12:28 10° 360° (N) 2,355 6.7 -15.2°
Maximum altitude 19:17:39 53° 77° (ENE) 967 4.2 -16.2°
Enters shadow 19:21:26 18° 149° (SSE) 1,851 5.6 -16.9°
